Location: Oak Glen
(34.0495°N, 116.9470°E)
Time: 14:23:55
(UTC-08:00)

Vanguard 1 - Pass Details

Date: 26 June 2018
Orbit: 649 x 3834 km, 34.3° (Epoch: 11 November)

Event Time Altitude Azimuth Distance (km) Brightness Sun altitude
Rises 20:06:55 0° 286° (WNW) 6,098 13.9 71.6°
Reaches altitude 10° 20:10:29 10° 281° (WNW) 5,440 13.8 72.2°
Maximum altitude 20:27:32 52° 212° (SSW) 4,145 14.2 75.0°
Drops below altitude 10° 20:49:42 10° 144° (SE) 6,816 14.7 77.9°
Sets 20:54:57 0° 140° (SE) 7,661 14.8 78.4°
